TimeEDT,TemperatureF,Dew PointF,Humidity,Sea Level PressureIn,VisibilityMPH,Wind Direction,Wind SpeedMPH,Gust SpeedMPH,PrecipitationIn,Events,Conditions,WindDirDegrees,DateUTC
12:52 AM,41.0,39.0,93,30.12,8.0,North,5.8,-,N/A,,Overcast,360,2013-04-24 04:52:00
1:11 AM,41.0,39.2,93,30.09,7.0,North,6.9,-,N/A,,Overcast,350,2013-04-24 05:11:00
1:52 AM,42.1,39.9,92,30.07,10.0,Variable,5.8,-,N/A,,Overcast,0,2013-04-24 05:52:00
2:52 AM,42.1,39.9,92,30.04,9.0,NNW,8.1,-,N/A,,Overcast,340,2013-04-24 06:52:00
3:36 AM,42.8,39.2,87,30.03,7.0,NNW,9.2,-,N/A,,Overcast,330,2013-04-24 07:36:00
3:52 AM,42.1,39.9,92,30.04,8.0,NNW,6.9,-,N/A,,Overcast,340,2013-04-24 07:52:00
4:52 AM,43.0,39.9,89,30.02,8.0,NNW,9.2,-,N/A,,Overcast,340,2013-04-24 08:52:00
5:41 AM,42.8,39.2,87,30.01,10.0,NNW,10.4,-,N/A,,Overcast,330,2013-04-24 09:41:00
5:52 AM,43.0,39.9,89,30.02,10.0,NNW,9.2,-,N/A,,Overcast,330,2013-04-24 09:52:00
6:52 AM,44.1,39.9,85,30.01,10.0,NNW,5.8,-,N/A,,Overcast,340,2013-04-24 10:52:00
7:52 AM,46.0,41.0,83,30.00,10.0,NW,5.8,-,N/A,,Mostly Cloudy,320,2013-04-24 11:52:00
8:52 AM,50.0,43.0,77,30.00,10.0,NW,9.2,-,N/A,,Overcast,310,2013-04-24 12:52:00
9:24 AM,53.6,44.6,72,29.97,10.0,NW,9.2,-,N/A,,Scattered Clouds,310,2013-04-24 13:24:00
9:52 AM,55.0,44.1,67,29.97,10.0,West,9.2,-,N/A,,Clear,270,2013-04-24 13:52:00
10:52 AM,59.0,46.0,62,29.94,10.0,Variable,3.5,-,N/A,,Clear,0,2013-04-24 14:52:00
11:52 AM,64.9,46.9,52,29.92,10.0,West,4.6,-,N/A,,Clear,270,2013-04-24 15:52:00
12:52 PM,70.0,45.0,41,29.88,10.0,West,8.1,-,N/A,,Clear,280,2013-04-24 16:52:00
1:52 PM,73.0,39.9,30,29.84,10.0,West,4.6,-,N/A,,Clear,260,2013-04-24 17:52:00
2:52 PM,75.0,36.0,24,29.81,10.0,SSE,4.6,-,N/A,,Clear,150,2013-04-24 18:52:00
3:52 PM,75.9,30.9,19,29.81,10.0,WSW,9.2,17.3,N/A,,Clear,250,2013-04-24 19:52:00
4:52 PM,75.9,35.1,23,29.81,10.0,SW,11.5,-,N/A,,Overcast,220,2013-04-24 20:52:00
5:52 PM,75.0,37.0,25,29.79,10.0,South,13.8,18.4,N/A,,Clear,180,2013-04-24 21:52:00
6:52 PM,73.9,37.9,27,29.79,10.0,SSW,11.5,19.6,N/A,,Clear,200,2013-04-24 22:52:00
7:52 PM,69.1,41.0,36,29.80,10.0,South,9.2,-,N/A,,Clear,190,2013-04-24 23:52:00
8:52 PM,64.0,44.1,48,29.83,10.0,SSE,12.7,19.6,N/A,,Clear,160,2013-04-25 00:52:00
9:52 PM,60.1,46.0,60,29.85,10.0,SSW,10.4,-,N/A,,Clear,200,2013-04-25 01:52:00
10:52 PM,57.9,46.0,65,29.83,10.0,South,9.2,-,N/A,,Clear,180,2013-04-25 02:52:00
11:52 PM,57.0,46.9,69,29.84,10.0,SW,9.2,-,N/A,,Mostly Cloudy,220,2013-04-25 03:52:00